Previsão horária em Abdrahimovo

Hoje, 11 Abril, Domingo

Tempo Temperatura Precipitação Vento Pressão Humidade
00:00 +4°C° 0 mm 1 m/s 754 mmHg 94%
01:00 +4°C° 0 mm 1 m/s 754 mmHg 94%
02:00 +4°C° 0 mm 1 m/s 755 mmHg 94%
03:00 +4°C° 0 mm 1 m/s 755 mmHg 94%
04:00 +3°C° 0 mm 1 m/s 755 mmHg 98%
05:00 +3°C° 0 mm 1 m/s 755 mmHg 98%
06:00 +4°C° 0 mm 1 m/s 755 mmHg 99%
07:00 +4°C° 0 mm 1 m/s 755 mmHg 99%
08:00 +5°C° 0 mm 1 m/s 755 mmHg 99%
09:00 +6°C° 0 mm 1 m/s 756 mmHg 98%
10:00 +7°C° 0 mm 1 m/s 756 mmHg 97%
11:00 +8°C° 0 mm 1 m/s 756 mmHg 96%
12:00 +9°C° 0 mm 1 m/s 756 mmHg 94%
13:00 +9°C° 0 mm 2 m/s 756 mmHg 93%
14:00 +9°C° 0 mm 2 m/s 756 mmHg 92%
15:00 +9°C° 0 mm 2 m/s 755 mmHg 92%
16:00 +9°C° 0 mm 2 m/s 755 mmHg 91%
17:00 +9°C° 0 mm 2 m/s 755 mmHg 89%
18:00 +8°C° 0 mm 2 m/s 756 mmHg 88%
19:00 +7°C° 0 mm 2 m/s 756 mmHg 86%
20:00 +7°C° 0 mm 2 m/s 756 mmHg 85%
21:00 +6°C° 0 mm 2 m/s 756 mmHg 85%
22:00 +6°C° 0 mm 2 m/s 756 mmHg 85%
23:00 +6°C° 0.2 mm 2 m/s 756 mmHg 87%

Amanhã, 12 Abril, Segunda-feira

Tempo Temperatura Precipitação Vento Pressão Humidade
00:00 +6°C° 0.2 mm 2 m/s 756 mmHg 88%
01:00 +6°C° 0.2 mm 2 m/s 756 mmHg 90%
02:00 +6°C° 0.2 mm 2 m/s 757 mmHg 90%
03:00 +6°C° 0.2 mm 2 m/s 757 mmHg 91%
04:00 +5°C° 0.2 mm 2 m/s 757 mmHg 91%
05:00 +6°C° 0.6 mm 1 m/s 757 mmHg 93%
06:00 +6°C° 0.6 mm 1 m/s 757 mmHg 95%
07:00 +6°C° 0.6 mm 1 m/s 758 mmHg 97%
08:00 +6°C° 1 mm 1 m/s 758 mmHg 97%
09:00 +6°C° 1 mm 1 m/s 758 mmHg 98%
10:00 +6°C° 1 mm 1 m/s 759 mmHg 99%
11:00 +6°C° 0.4 mm 1 m/s 759 mmHg 98%
12:00 +6°C° 0.4 mm 1 m/s 759 mmHg 97%
13:00 +7°C° 0.4 mm 1 m/s 759 mmHg 95%
14:00 +7°C° 0 mm 1 m/s 759 mmHg 91%
15:00 +8°C° 0 mm 1 m/s 760 mmHg 87%
16:00 +9°C° 0 mm 1 m/s 760 mmHg 82%
17:00 +8°C° 0 mm 1 m/s 760 mmHg 87%
18:00 +7°C° 0 mm 1 m/s 760 mmHg 87%
19:00 +7°C° 0 mm 1 m/s 760 mmHg 86%
20:00 +7°C° 0 mm 1 m/s 760 mmHg 87%
21:00 +5°C° 0 mm 2 m/s 761 mmHg 87%
22:00 +5°C° 0 mm 2 m/s 761 mmHg 87%
23:00 +4°C° 0 mm 2 m/s 761 mmHg 88%

Depois de amanhã, 13 Abril, Terça-feira

Tempo Temperatura Precipitação Vento Pressão Humidade
00:00 +4°C° 0 mm 2 m/s 761 mmHg 88%
01:00 +4°C° 0 mm 2 m/s 760 mmHg 88%
02:00 +4°C° 0 mm 2 m/s 760 mmHg 89%
03:00 +3°C° 0 mm 2 m/s 760 mmHg 89%
04:00 +3°C° 0 mm 2 m/s 761 mmHg 89%
05:00 +5°C° 0 mm 1 m/s 761 mmHg 89%
06:00 +5°C° 0 mm 1 m/s 761 mmHg 88%
07:00 +6°C° 0 mm 1 m/s 761 mmHg 87%
08:00 +8°C° 0 mm 1 m/s 761 mmHg 84%
09:00 +9°C° 0 mm 1 m/s 761 mmHg 81%
10:00 +11°C° 0 mm 1 m/s 761 mmHg 78%
11:00 +12°C° 0 mm 1 m/s 760 mmHg 75%
12:00 +14°C° 0 mm 2 m/s 760 mmHg 72%
13:00 +15°C° 0 mm 2 m/s 760 mmHg 69%
14:00 +15°C° 0 mm 2 m/s 759 mmHg 67%
15:00 +16°C° 0 mm 2 m/s 759 mmHg 66%
16:00 +16°C° 0 mm 2 m/s 759 mmHg 64%
17:00 +15°C° 0 mm 2 m/s 759 mmHg 71%
18:00 +14°C° 0 mm 2 m/s 758 mmHg 77%
19:00 +13°C° 0 mm 2 m/s 758 mmHg 83%
20:00 +12°C° 0 mm 2 m/s 758 mmHg 84%
21:00 +12°C° 0 mm 1 m/s 758 mmHg 85%
22:00 +12°C° 0 mm 1 m/s 758 mmHg 87%
23:00 +11°C° 0 mm 1 m/s 757 mmHg 87%

14 Abril, Quarta-feira

Tempo Temperatura Precipitação Vento Pressão Humidade
00:00 +11°C° 0 mm 1 m/s 757 mmHg 87%
01:00 +10°C° 0 mm 2 m/s 757 mmHg 87%
02:00 +9°C° 0 mm 2 m/s 757 mmHg 87%
03:00 +10°C° 0 mm 1 m/s 757 mmHg 87%
04:00 +9°C° 0 mm 1 m/s 757 mmHg 88%
05:00 +10°C° 0 mm 1 m/s 757 mmHg 87%
06:00 +10°C° 0 mm 1 m/s 757 mmHg 87%
07:00 +10°C° 0 mm 1 m/s 757 mmHg 86%
08:00 +10°C° 0 mm 2 m/s 756 mmHg 80%
09:00 +13°C° 0 mm 2 m/s 756 mmHg 73%
10:00 +14°C° 0 mm 2 m/s 756 mmHg 67%
11:00 +15°C° 0 mm 2 m/s 755 mmHg 62%
12:00 +16°C° 0 mm 2 m/s 755 mmHg 58%
13:00 +17°C° 0 mm 2 m/s 755 mmHg 54%
14:00 +18°C° 0 mm 2 m/s 754 mmHg 53%
15:00 +18°C° 0 mm 2 m/s 754 mmHg 52%
16:00 +18°C° 0 mm 2 m/s 753 mmHg 51%
17:00 +17°C° 0 mm 2 m/s 753 mmHg 57%
18:00 +16°C° 0 mm 1 m/s 753 mmHg 63%
19:00 +15°C° 0 mm 1 m/s 752 mmHg 69%
20:00 +14°C° 0 mm 1 m/s 752 mmHg 72%
21:00 +13°C° 0 mm 1 m/s 752 mmHg 75%
22:00 +11°C° 0 mm 0 m/s 752 mmHg 78%
23:00 +11°C° 0 mm 0 m/s 752 mmHg 80%

15 Abril, Quinta-feira

Tempo Temperatura Precipitação Vento Pressão Humidade
00:00 +10°C° 0 mm 0 m/s 752 mmHg 81%
01:00 +10°C° 0 mm 0 m/s 751 mmHg 83%
02:00 +9°C° 0 mm 0 m/s 751 mmHg 83%
03:00 +9°C° 0 mm 0 m/s 751 mmHg 84%
04:00 +8°C° 0 mm 0 m/s 751 mmHg 84%
05:00 +10°C° 0 mm 1 m/s 751 mmHg 83%
06:00 +10°C° 0 mm 1 m/s 751 mmHg 82%
07:00 +11°C° 0 mm 1 m/s 751 mmHg 81%
08:00 +12°C° 0 mm 1 m/s 750 mmHg 75%
09:00 +14°C° 0 mm 1 m/s 750 mmHg 68%
10:00 +15°C° 0 mm 2 m/s 750 mmHg 62%
11:00 +16°C° 0 mm 2 m/s 749 mmHg 57%
12:00 +18°C° 0 mm 2 m/s 749 mmHg 53%
13:00 +19°C° 0 mm 2 m/s 748 mmHg 48%
14:00 +19°C° 0 mm 2 m/s 748 mmHg 47%
15:00 +19°C° 0 mm 2 m/s 748 mmHg 46%
16:00 +20°C° 0 mm 2 m/s 747 mmHg 45%
17:00 +18°C° 0 mm 2 m/s 747 mmHg 51%
18:00 +17°C° 0 mm 2 m/s 746 mmHg 57%
19:00 +16°C° 0 mm 2 m/s 746 mmHg 64%
20:00 +15°C° 0 mm 2 m/s 746 mmHg 68%
21:00 +14°C° 0 mm 2 m/s 746 mmHg 73%
22:00 +13°C° 0 mm 2 m/s 745 mmHg 77%
23:00 +12°C° 0 mm 2 m/s 745 mmHg 79%

16 Abril, Sexta-feira

Tempo Temperatura Precipitação Vento Pressão Humidade
00:00 +12°C° 0 mm 2 m/s 745 mmHg 80%
01:00 +10°C° 0 mm 2 m/s 745 mmHg 81%
02:00 +9°C° 0 mm 2 m/s 744 mmHg 80%
03:00 +9°C° 0 mm 2 m/s 744 mmHg 78%
04:00 +8°C° 0 mm 2 m/s 744 mmHg 77%
05:00 +9°C° 0 mm 2 m/s 743 mmHg 75%
06:00 +9°C° 0 mm 2 m/s 743 mmHg 74%
07:00 +9°C° 0 mm 2 m/s 742 mmHg 72%
08:00 +11°C° 0 mm 3 m/s 742 mmHg 66%
09:00 +13°C° 0 mm 4 m/s 741 mmHg 59%
10:00 +14°C° 0 mm 5 m/s 741 mmHg 53%
11:00 +15°C° 0 mm 5 m/s 740 mmHg 50%
12:00 +16°C° 0 mm 6 m/s 740 mmHg 48%
13:00 +17°C° 0 mm 6 m/s 739 mmHg 45%
14:00 +15°C° 0.1 mm 6 m/s 739 mmHg 55%
15:00 +12°C° 0.1 mm 7 m/s 739 mmHg 65%
16:00 +10°C° 0.1 mm 7 m/s 739 mmHg 74%
17:00 +8°C° 0.2 mm 7 m/s 740 mmHg 76%
18:00 +5°C° 0.2 mm 7 m/s 740 mmHg 77%
19:00 +2°C° 0.2 mm 7 m/s 741 mmHg 78%
20:00 +2°C° 0 mm 6 m/s 741 mmHg 75%
21:00 +2°C° 0 mm 6 m/s 741 mmHg 72%
22:00 +1°C° 0 mm 5 m/s 741 mmHg 69%
23:00 +1°C° 0 mm 6 m/s 741 mmHg 72%
Mostrar mais